SCP
-0 -0 0 0 0 0 0 -0 0 0 -0 -0 -0 0 -0 -0 -0 0 -0 -0 0 -0 -0 -0 -0 -0 -0 -0 -0 -0 -0 -0 -0 -0 -0 -0 -0 -0 -0 -0 -0 -0 -0 -0 -0 -0 -0 0 0
-0 -0 0 0 0 0 0 0 0 0 -0 -0 0 0 -0 -0 0 0 -0 -0 0 -0 -0 -0 -0 -0 -0 -0 -0 -0 -0 -0 -0 -0 -0 -0 -0 -0 -0 -0 -0 -0 -0 -0 -0 -0 -0 -0 0
-0 -0 0 0 -0 0 0 0 0 0 -0 -0 0 -0 -0 -0 -0 0 -0 0 0 -0 -0 -0 -0 -0 -0 -0 -0 0 -0 -0 -0 -0 -0 -0 -0 -0 -0 -0 -0 -0 -0 -0 -0 -0 -0 -0 -0
0 0 0 -0 -0 -0 -0 -0 0 0 0 -0 0 -0 -0 -0 -0 -0 -0 -0 -0 -0 -0 -0 -0 -0 -0 -0 -0 -0 -0 -0 -0 -0 -0 -0 -0 -0 -0 -0 -0 -0 -0 -0 -0 -0 -0 -0 0
0 0 -0 -0 -0 -0 -0 -0 0 0 0 0 0 0 -0 0 -0 -0 -0 -0 -0 -0 -0 -0 -0 -0 -0 -0 -0 -0 -0 -0 -0 -0 -0 -0 -0 -0 -0 -0 -0 -0 -0 -0 -0 -0 -0 0 0
0 0 0 0 -0 -0 -0 0 0 0 0 0 0 0 0 0 0 0 -0 -0 -0 -0 -0 -0 -0 0 0 0 -0 0 0 -0 -0 -0 -0 -0 -0 -0 -0 -0 -0 -0 -0 -0 -0 0 0 0 0
0 0 0 0 0 0 0 0 0 0 0 0 0 0 0 0 0 0 0 0 -0 -0 0 0 0 -0 0 0 0 0 0 0 0 -0 -0 -0 -0 -0 -0 0 -0 -0 0 0 0 0 0 0 0
0 0 0 0 0 0 0 0 0 0 0 0 0 0 0 0 0 0 0 0 0 0 0 0 0 0 0 0 0 0 0 0 0 0 0 0 0 -0 -0 0 0 0 0 0 0 0 0 0 0
0 0 0 0 0 0 0 0 0 0 0 0 0 0 0 0 0 0 0 0 0 0 0 0 0 0 0 0 0 0 0 0 0 0 0 0 0 0 0 -0 -0 0 0 0 0 0 0 0 0
0 0 0 0 0 0 0 0 0 0 0 0 0 0 0 0 0 0 0 0 0 0 0 0 0 0 0 0 0 0 0 0 0 0 0 0 0 0 0 0 0 0 0 0 0 0 0 0 0
0 0 0 0 0 0 0 0 0 0 0 0 0 0 0 0 0 0 0 0 0 0 0 0 0 0 0 0 0 0 0 0 0 0 0 0 0 0 0 0 0 0 0 0 0 0 0 0 0
0 0 0 0 0 0 0 0 0 0 0 0 0 0 0 0 0 0 0 0 0 0 0 0 0 0 0 0 0 0 0 0 0 0 0 0 0 0 0 0 0 0 0 0 0 0 0 0 0
0 0 0 0 0 0 0 0 0 0 0 0 0 0 0 0 0 0 0 0 0 0 0 0 0 0 0 0 0 0 0 0 0 0 0 0 0 0 0 0 0 0 0 0 0 0 0 0 0
0 0 0 0 0 0 0 0 0 0 0 0 0 0 0 0 0 0 0 0 0 0 0 0 0 0 0 0 0 0 0 0 0 0 0 0 0 0 0 0 0 0 0 0 0 0 0 0 0
0 0 0 0 0 0 0 0 0 0 0 0 0 0 0 0 0 0 0 0 0 0 0 0 0 0 0 0 0 0 0 0 0 0 0 0 0 0 0 0 0 0 0 0 0 0 0 0 0
0 0 0 0 0 0 0 0 0 0 0 0 0 0 0 0 0 0 0 0 0 0 0 0 0 0 0 0 0 0 0 0 0 0 0 0 0 0 0 0 0 0 0 0 0 0 0 0 0
0 0 0 0 0 0 0 0 0 0 0 0 0 0 0 0 0 0 0 0 0 0 0 0 0 0 0 0 0 0 0 0 0 0 0 0 0 0 0 0 0 0 0 0 0 0 0 0 0
0 0 0 0 0 0 0 0 0 0 0 0 0 0 0 0 0 0 0 0 0 0 0 0 0 0 0 0 0 0 0 0 0 0 0 0 0 0 0 0 0 0 0 0 0 0 0 0 0
0 0 0 0 0 0 0 0 0 0 0 0 0 0 0 0 0 0 0 0 0 0 0 0 0 0 0 0 0 0 0 0 0 0 0 0 0 0 0 0 0 0 0 0 0 0 0 0 0
0 0 0 0 0 0 0 0 0 0 0 0 0 0 0 0 0 0 0 0 0 0 0 0 0 0 0 0 0 0 0 0 0 0 0 0 0 0 0 0 0 0 0 0 0 0 0 0 0
0 0 0 0 0 0 0 0 0 0 0 0 0 0 0 0 0 0 0 0 0 0 0 0 0 0 0 0 0 0 0 0 0 0 0 0 0 0 0 0 0 0 0 0 0 0 0 0 0
0 0 0 0 0 0 0 0 0 0 0 0 0 0 0 0 0 0 0 0 0 0 0 0 0 0 0 0 0 0 0 0 0 0 0 0 0 0 0 0 0 0 0 0 0 0 0 0 0
0 0 0 0 0 0 0 0 -0 0 0 0 0 0 0 0 0 0 0 0 0 0 0 0 0 0 0 0 0 0 0 0 0 0 0 0 0 0 0 0 0 0 0 0 0 0 0 0 0
0 0 0 0 0 0 0 0 -0 0 0 0 0 0 0 0 0 0 0 0 0 0 0 0 0 0 0 0 0 0 0 0 0 0 0 0 0 0 0 0 0 0 0 0 0 0 0 0 0
0 0 0 0 0 0 0 0 0 0 0 0 0 0 0 0 0 0 0 0 0 0 0 0 0 0 0 0 0 0 0 0 0 0 0 0 0 0 0 0 0 0 0 0 0 0 0 0 -0
0 0 0 0 0 0 0 0 0 0 0 0 0 0 0 0 0 0 0 0 0 0 0 0 0 0 0 0 0 0 0 0 0 0 0 0 0 0 0 0 0 0 0 0 0 0 0 0 0
0 0 0 0 0 0 0 0 0 0 0 0 0 0 0 0 0 0 0 0 0 0 0 0 0 0 0 0 0 0 0 0 0 0 0 0 0 0 0 0 0 0 0 0 0 0 0 0 0
0 0 0 0 0 0 0 0 0 0 0 0 0 0 0 0 0 0 0 0 0 0 0 0 0 0 0 0 0 0 0 0 0 0 0 0 0 0 0 0 0 0 0 0 0 0 0 0 0
0 0 0 0 0 0 0 0 0 0 0 0 0 0 0 0 0 0 0 0 0 0 0 0 0 0 0 0 0 0 0 0 0 0 0 0 0 0 0 0 0 0 0 0 0 0 0 0 0
0 0 0 0 0 0 0 0 0 0 0 0 0 0 0 0 0 0 0 0 0 0 0 0 0 0 0 0 0 0 0 0 0 0 0 0 0 0 0 0 0 0 0 0 0 0 0 0 0
Wind_Speed_500mb
6 9 7 5 4 5 10 7 3 8 14 19 12 20 27 42 13 9 13 3 19 21 18 23 22 21 22 21 19 18 18 15 12 14 13 10 13 17 16 15 16 17 17 16 15 15 14 13 14
9 8 8 8 4 6 8 12 17 16 17 9 8 1 39 19 32 23 6 7 26 23 14 23 21 18 18 20 18 17 15 14 12 12 12 10 8 12 13 15 16 15 13 11 12 13 12 10 10
7 8 6 5 4 11 10 9 16 21 10 3 8 22 19 12 17 8 7 11 27 25 10 19 22 19 14 17 19 15 14 11 10 12 14 10 11 12 14 17 19 16 13 12 14 14 12 9 9
8 5 9 3 12 12 17 15 15 19 13 5 7 22 21 19 6 9 16 21 23 25 20 19 21 21 17 14 16 15 14 9 10 10 8 6 11 13 17 21 19 17 13 12 13 14 13 11 9
17 8 6 4 13 10 15 18 1 8 11 14 3 19 20 22 19 18 18 18 11 27 19 17 19 22 19 15 15 15 12 8 9 10 6 3 8 13 19 23 24 18 13 12 12 12 11 11 11
7 4 6 7 12 14 15 8 5 6 16 9 7 23 12 12 13 18 14 24 13 25 16 14 21 22 21 18 15 14 12 10 10 10 6 2 4 10 16 20 21 21 16 15 15 14 12 12 11
6 4 6 13 12 10 10 7 9 8 12 16 8 10 23 11 17 15 15 14 19 14 23 10 16 17 19 18 17 16 14 9 10 10 8 6 6 9 12 17 19 18 18 16 15 14 12 11 11
7 3 4 3 6 4 12 9 9 11 11 14 0 6 12 7 10 13 19 18 19 23 26 19 21 30 25 17 18 17 14 12 15 13 11 12 10 4 13 15 18 14 16 17 17 15 13 11 9
6 4 7 5 6 5 17 10 6 4 11 11 4 6 11 4 7 12 3 6 10 18 18 20 24 34 33 23 21 17 19 19 18 16 15 15 10 11 10 16 23 14 15 16 17 17 15 11 8
4 5 10 16 12 4 16 6 23 7 17 10 12 2 1 3 9 16 24 16 17 17 18 20 20 23 34 34 21 18 22 23 22 18 16 14 14 10 3 6 14 17 21 23 21 15 14 16 15
1 4 8 7 13 13 16 5 4 9 10 13 23 9 3 3 9 17 19 22 20 17 21 22 24 25 27 35 36 21 22 19 19 17 15 17 18 11 7 3 14 13 14 23 31 30 26 25 24
7 5 5 7 2 1 3 2 4 9 7 11 17 12 6 5 7 12 14 14 14 17 21 23 25 28 29 29 31 38 27 28 28 26 21 19 16 14 9 8 6 9 13 12 16 20 25 28 24
10 6 3 5 8 9 7 9 14 14 20 15 14 11 11 9 7 5 6 7 10 13 14 15 15 20 26 29 35 39 40 33 28 24 19 19 17 16 9 7 10 11 13 14 18 16 20 22 23
10 13 15 15 18 13 9 15 11 14 25 17 14 15 15 12 8 7 9 12 15 15 18 19 21 24 27 34 36 34 32 25 23 18 18 17 17 15 13 16 15 21 12 15 17 15 15 17 19
7 9 16 31 28 9 15 15 20 23 25 21 19 18 16 13 10 13 12 19 18 22 23 23 22 22 24 30 34 36 31 26 20 17 15 17 17 19 18 18 19 22 17 14 6 3 9 15 20
7 8 6 11 31 14 20 15 24 32 29 28 22 19 15 16 14 17 17 23 21 23 24 22 18 21 26 32 34 36 33 27 20 17 13 13 16 14 10 9 10 7 8 6 3 5 13 19 26
13 9 15 9 25 13 16 10 14 25 29 32 32 25 20 19 18 19 20 20 19 17 12 9 11 20 28 35 36 35 30 27 24 20 18 13 10 7 11 8 10 13 9 4 5 11 19 20 16
12 15 14 13 15 13 16 25 12 29 37 39 35 31 27 24 22 24 17 14 15 11 9 13 18 27 32 39 32 39 36 32 23 24 22 18 18 20 20 19 13 6 2 4 6 7 14 20 25
18 18 15 13 8 10 20 23 19 43 38 38 41 40 34 28 31 22 20 16 16 17 16 20 26 32 39 38 41 38 38 36 32 27 25 24 22 15 11 9 8 8 10 19 20 20 21 23 28
22 23 23 17 14 7 15 23 20 34 43 60 54 45 39 36 28 23 22 23 24 24 27 30 36 46 48 51 44 40 39 35 29 28 26 21 17 18 17 19 22 22 23 23 24 27 31 34 36
18 24 16 18 6 10 12 18 27 23 36 44 45 40 41 42 34 32 31 32 32 34 36 42 47 50 52 48 42 41 37 36 32 31 31 31 28 28 25 24 22 20 20 22 24 25 29 33 33
24 15 21 15 8 10 16 14 10 18 18 25 40 41 39 39 38 36 38 42 41 42 45 48 50 47 41 36 37 38 36 39 39 39 37 36 30 26 23 20 19 18 20 21 24 27 29 29 33
6 9 2 7 10 11 14 14 8 10 18 32 37 50 48 48 48 46 45 48 47 46 47 47 44 42 40 41 39 37 43 45 45 41 36 31 27 23 20 17 17 18 20 22 24 27 32 35 35
17 10 7 3 2 17 19 20 15 22 31 13 38 55 58 57 51 47 51 53 56 52 48 45 43 44 43 42 41 43 44 45 42 38 31 27 23 18 15 14 16 20 23 25 28 29 31 33 34
13 13 4 6 8 17 4 21 29 14 10 16 38 55 60 62 58 61 59 58 59 59 57 54 52 52 49 48 47 45 42 39 35 31 26 22 16 13 12 12 14 19 24 27 30 35 37 40 41
18 19 11 11 10 9 6 15 12 5 17 4 54 62 64 67 66 66 64 64 64 63 60 58 56 56 54 51 49 46 42 38 33 27 22 18 13 9 9 14 20 24 29 32 35 36 38 39 41
12 21 14 5 1 3 11 13 9 7 9 10 44 61 64 69 68 68 67 67 70 69 67 64 60 56 54 52 50 46 41 36 32 28 22 16 11 10 12 16 20 25 28 29 30 32 33 38 43
7 16 11 9 9 12 12 17 17 12 19 17 32 57 65 71 73 73 74 73 72 69 67 64 59 57 57 54 50 47 43 37 31 25 19 12 7 6 9 14 17 21 22 24 27 31 36 40 46
12 10 11 13 9 8 5 13 9 28 30 38 36 64 74 80 81 82 81 77 74 71 68 66 64 63 60 55 52 47 43 38 31 24 17 11 5 1 6 10 15 19 24 28 31 35 40 46 52
27 13 21 8 12 13 3 17 6 5 26 43 49 62 70 79 81 82 83 81 79 76 73 72 70 67 62 58 53 50 45 39 33 25 18 11 6 5 7 11 17 22 27 31 34 38 45 52 55
Wind_Direction_500mb
87 73 89 357 326 167 122 66 69 68 88 63 63 51 79 50 32 90 124 236 124 180 185 168 159 159 159 158 152 150 138 129 130 119 110 88 49 45 51 41 36 32 35 37 39 44 48 57 59
61 81 21 287 246 138 88 141 88 70 79 95 103 126 84 67 81 96 93 43 127 169 180 171 159 164 161 163 160 153 145 141 136 135 129 104 63 26 38 28 27 26 31 38 43 45 52 61 73
65 55 299 273 303 31 108 84 103 101 91 74 122 52 48 8 45 75 106 80 134 159 180 174 171 167 170 163 165 163 151 149 148 143 126 93 25 32 25 17 20 17 28 34 34 35 44 59 84
27 291 262 267 91 24 93 75 81 120 109 44 57 90 82 35 73 84 109 101 144 147 178 184 196 179 182 168 172 174 166 167 165 157 125 56 26 23 14 19 18 20 38 42 37 39 41 44 60
356 288 289 278 71 89 62 73 31 103 95 117 314 86 87 68 88 80 83 109 133 151 184 194 209 184 189 187 184 187 193 197 187 175 155 48 35 25 18 16 15 16 25 25 32 43 50 61 67
295 274 288 224 126 100 93 97 161 109 106 118 111 95 89 138 115 112 101 121 125 157 171 201 189 186 193 191 192 198 201 204 203 204 215 218 15 18 19 19 19 22 23 22 26 35 47 61 76
310 337 306 339 114 126 124 150 221 146 148 56 2 93 139 124 113 103 115 130 152 171 169 171 199 204 206 207 208 208 212 222 224 233 244 267 313 346 357 12 11 16 19 20 24 29 34 43 56
335 276 308 252 149 176 110 168 69 16 65 108 52 40 138 167 111 126 140 166 166 166 182 179 190 197 198 222 228 224 215 221 224 231 237 251 264 326 330 16 7 9 13 20 23 25 26 31 41
357 302 253 149 294 109 133 161 163 162 126 114 69 119 147 170 121 148 175 204 200 194 213 213 204 206 199 196 213 227 234 235 232 232 237 251 222 269 343 355 345 12 15 8 11 15 18 13 8
316 339 350 7 33 45 144 291 151 187 152 126 110 57 324 247 173 174 166 192 215 220 218 220 220 214 201 195 195 212 231 238 242 237 243 237 217 217 225 10 21 13 10 6 355 0 9 5 355
137 262 23 76 44 353 136 234 142 254 247 83 149 187 293 230 183 185 198 217 228 226 230 227 224 223 217 204 196 189 222 226 223 230 220 200 206 225 190 315 12 348 349 359 359 357 10 16 11
293 192 319 76 168 175 193 287 209 239 138 180 190 204 215 182 177 191 208 226 229 231 239 240 234 228 225 216 201 198 198 206 204 201 193 210 219 212 206 267 265 294 315 327 351 344 347 358 8
231 239 189 221 194 212 278 256 250 175 221 217 218 202 194 188 166 191 194 221 231 238 246 248 243 234 224 212 203 204 211 213 205 207 200 193 186 194 214 257 285 289 293 325 333 329 330 340 349
12 336 275 213 209 219 223 249 219 200 213 216 210 205 202 206 203 220 234 244 247 252 254 252 245 237 222 207 200 201 209 222 219 219 211 211 231 248 266 287 286 297 247 291 294 293 310 329 338
306 296 260 232 214 219 198 270 225 205 203 193 192 206 208 217 220 237 256 266 278 277 272 262 247 237 217 200 199 199 201 202 205 214 222 236 245 253 262 263 265 253 268 273 263 274 319 322 319
245 221 280 352 176 152 159 257 193 173 182 197 203 202 220 239 238 252 261 266 270 270 270 267 245 215 198 182 194 197 198 198 193 202 194 216 224 225 244 234 239 236 228 155 245 318 311 306 315
207 263 227 190 174 137 190 273 136 171 191 205 198 207 217 228 246 247 252 263 264 261 255 222 187 166 169 186 193 192 192 185 182 186 181 197 176 197 205 172 159 138 146 118 315 312 315 329 347
215 215 259 248 196 183 195 257 178 194 202 212 206 207 213 212 222 248 251 235 228 216 178 157 153 161 170 179 184 167 171 173 176 170 154 168 149 146 134 135 133 125 309 320 330 359 31 19 24
277 292 281 274 89 169 232 248 222 194 207 213 212 205 209 208 228 235 228 203 184 177 168 155 159 160 159 162 153 162 158 150 161 151 152 153 149 152 160 146 119 92 80 71 61 45 32 27 27
235 259 258 279 134 163 267 265 267 181 207 207 208 203 202 198 222 210 201 183 175 176 168 164 160 157 154 157 168 172 163 154 150 146 145 141 136 129 126 109 101 88 75 68 51 36 26 18 15
247 233 247 243 193 209 280 266 247 244 202 203 211 209 202 203 208 198 191 178 178 176 170 166 166 163 162 165 166 161 156 150 151 142 135 121 115 108 100 92 84 74 60 48 38 30 21 22 14
243 221 240 258 286 252 153 282 247 269 196 194 196 199 195 190 198 200 183 178 182 177 173 170 168 165 165 159 159 165 167 155 142 134 126 121 114 107 97 84 71 54 44 33 28 25 20 12 12
215 59 132 190 249 304 256 282 227 230 215 216 193 195 194 190 192 192 184 183 183 182 177 175 173 171 171 177 182 174 157 147 140 135 132 125 116 102 88 74 58 44 34 31 24 19 17 13 10
123 88 69 54 169 253 204 212 257 224 226 197 189 191 190 187 187 186 186 184 183 185 186 186 186 183 181 174 165 161 157 151 146 140 135 123 116 106 90 63 36 26 19 14 14 12 10 10 8
158 136 204 251 206 248 125 214 244 316 168 189 181 181 186 185 182 183 186 182 181 183 183 182 180 174 169 166 161 159 157 153 151 144 138 131 117 96 69 43 24 12 9 6 5 2 1 358 355
189 179 172 227 211 253 2 239 243 317 100 138 172 172 179 178 182 190 185 181 179 178 177 177 176 173 169 168 164 163 163 161 157 153 148 142 132 106 54 26 16 9 1 359 353 353 350 348 346
191 220 210 73 36 344 222 266 273 144 134 123 152 167 173 178 185 191 184 184 182 180 179 179 178 177 174 174 173 170 169 167 166 162 158 150 124 76 37 12 359 350 345 342 339 338 339 340 338
177 159 176 142 216 229 257 237 232 219 201 184 174 177 177 180 188 193 188 187 185 184 182 181 182 182 181 180 178 176 174 174 173 170 160 141 112 52 5 349 334 327 328 330 336 337 338 338 336
166 210 211 171 198 199 282 255 222 200 188 188 187 182 181 184 190 194 192 192 190 188 187 186 187 189 187 185 183 183 183 182 178 173 164 154 147 7 316 319 330 333 335 335 337 337 337 336 334
211 191 202 167 217 231 193 254 338 141 178 176 184 184 185 187 191 196 196 196 196 194 192 192 193 194 193 191 189 190 191 187 184 180 177 176 205 263 313 333 339 335 333 330 333 335 335 334 333
Wind_Speed_850mb
6 9 7 5 4 5 10 7 3 8 14 19 12 20 27 42 13 9 13 3 19 21 18 23 22 21 22 21 19 18 18 15 12 14 13 10 13 17 16 15 16 17 17 16 15 15 14 13 14
9 8 8 8 4 6 8 12 17 16 17 9 8 1 39 19 32 23 6 7 26 23 14 23 21 18 18 20 18 17 15 14 12 12 12 10 8 12 13 15 16 15 13 11 12 13 12 10 10
7 8 6 5 4 11 10 9 16 21 10 3 8 22 19 12 17 8 7 11 27 25 10 19 22 19 14 17 19 15 14 11 10 12 14 10 11 12 14 17 19 16 13 12 14 14 12 9 9
8 5 9 3 12 12 17 15 15 19 13 5 7 22 21 19 6 9 16 21 23 25 20 19 21 21 17 14 16 15 14 9 10 10 8 6 11 13 17 21 19 17 13 12 13 14 13 11 9
17 8 6 4 13 10 15 18 1 8 11 14 3 19 20 22 19 18 18 18 11 27 19 17 19 22 19 15 15 15 12 8 9 10 6 3 8 13 19 23 24 18 13 12 12 12 11 11 11
7 4 6 7 12 14 15 8 5 6 16 9 7 23 12 12 13 18 14 24 13 25 16 14 21 22 21 18 15 14 12 10 10 10 6 2 4 10 16 20 21 21 16 15 15 14 12 12 11
6 4 6 13 12 10 10 7 9 8 12 16 8 10 23 11 17 15 15 14 19 14 23 10 16 17 19 18 17 16 14 9 10 10 8 6 6 9 12 17 19 18 18 16 15 14 12 11 11
7 3 4 3 6 4 12 9 9 11 11 14 0 6 12 7 10 13 19 18 19 23 26 19 21 30 25 17 18 17 14 12 15 13 11 12 10 4 13 15 18 14 16 17 17 15 13 11 9
6 4 7 5 6 5 17 10 6 4 11 11 4 6 11 4 7 12 3 6 10 18 18 20 24 34 33 23 21 17 19 19 18 16 15 15 10 11 10 16 23 14 15 16 17 17 15 11 8
4 5 10 16 12 4 16 6 23 7 17 10 12 2 1 3 9 16 24 16 17 17 18 20 20 23 34 34 21 18 22 23 22 18 16 14 14 10 3 6 14 17 21 23 21 15 14 16 15
1 4 8 7 13 13 16 5 4 9 10 13 23 9 3 3 9 17 19 22 20 17 21 22 24 25 27 35 36 21 22 19 19 17 15 17 18 11 7 3 14 13 14 23 31 30 26 25 24
7 5 5 7 2 1 3 2 4 9 7 11 17 12 6 5 7 12 14 14 14 17 21 23 25 28 29 29 31 38 27 28 28 26 21 19 16 14 9 8 6 9 13 12 16 20 25 28 24
10 6 3 5 8 9 7 9 14 14 20 15 14 11 11 9 7 5 6 7 10 13 14 15 15 20 26 29 35 39 40 33 28 24 19 19 17 16 9 7 10 11 13 14 18 16 20 22 23
10 13 15 15 18 13 9 15 11 14 25 17 14 15 15 12 8 7 9 12 15 15 18 19 21 24 27 34 36 34 32 25 23 18 18 17 17 15 13 16 15 21 12 15 17 15 15 17 19
7 9 16 31 28 9 15 15 20 23 25 21 19 18 16 13 10 13 12 19 18 22 23 23 22 22 24 30 34 36 31 26 20 17 15 17 17 19 18 18 19 22 17 14 6 3 9 15 20
7 8 6 11 31 14 20 15 24 32 29 28 22 19 15 16 14 17 17 23 21 23 24 22 18 21 26 32 34 36 33 27 20 17 13 13 16 14 10 9 10 7 8 6 3 5 13 19 26
13 9 15 9 25 13 16 10 14 25 29 32 32 25 20 19 18 19 20 20 19 17 12 9 11 20 28 35 36 35 30 27 24 20 18 13 10 7 11 8 10 13 9 4 5 11 19 20 16
12 15 14 13 15 13 16 25 12 29 37 39 35 31 27 24 22 24 17 14 15 11 9 13 18 27 32 39 32 39 36 32 23 24 22 18 18 20 20 19 13 6 2 4 6 7 14 20 25
18 18 15 13 8 10 20 23 19 43 38 38 41 40 34 28 31 22 20 16 16 17 16 20 26 32 39 38 41 38 38 36 32 27 25 24 22 15 11 9 8 8 10 19 20 20 21 23 28
22 23 23 17 14 7 15 23 20 34 43 60 54 45 39 36 28 23 22 23 24 24 27 30 36 46 48 51 44 40 39 35 29 28 26 21 17 18 17 19 22 22 23 23 24 27 31 34 36
18 24 16 18 6 10 12 18 27 23 36 44 45 40 41 42 34 32 31 32 32 34 36 42 47 50 52 48 42 41 37 36 32 31 31 31 28 28 25 24 22 20 20 22 24 25 29 33 33
24 15 21 15 8 10 16 14 10 18 18 25 40 41 39 39 38 36 38 42 41 42 45 48 50 47 41 36 37 38 36 39 39 39 37 36 30 26 23 20 19 18 20 21 24 27 29 29 33
6 9 2 7 10 11 14 14 8 10 18 32 37 50 48 48 48 46 45 48 47 46 47 47 44 42 40 41 39 37 43 45 45 41 36 31 27 23 20 17 17 18 20 22 24 27 32 35 35
17 10 7 3 2 17 19 20 15 22 31 13 38 55 58 57 51 47 51 53 56 52 48 45 43 44 43 42 41 43 44 45 42 38 31 27 23 18 15 14 16 20 23 25 28 29 31 33 34
13 13 4 6 8 17 4 21 29 14 10 16 38 55 60 62 58 61 59 58 59 59 57 54 52 52 49 48 47 45 42 39 35 31 26 22 16 13 12 12 14 19 24 27 30 35 37 40 41
18 19 11 11 10 9 6 15 12 5 17 4 54 62 64 67 66 66 64 64 64 63 60 58 56 56 54 51 49 46 42 38 33 27 22 18 13 9 9 14 20 24 29 32 35 36 38 39 41
12 21 14 5 1 3 11 13 9 7 9 10 44 61 64 69 68 68 67 67 70 69 67 64 60 56 54 52 50 46 41 36 32 28 22 16 11 10 12 16 20 25 28 29 30 32 33 38 43
7 16 11 9 9 12 12 17 17 12 19 17 32 57 65 71 73 73 74 73 72 69 67 64 59 57 57 54 50 47 43 37 31 25 19 12 7 6 9 14 17 21 22 24 27 31 36 40 46
12 10 11 13 9 8 5 13 9 28 30 38 36 64 74 80 81 82 81 77 74 71 68 66 64 63 60 55 52 47 43 38 31 24 17 11 5 1 6 10 15 19 24 28 31 35 40 46 52
27 13 21 8 12 13 3 17 6 5 26 43 49 62 70 79 81 82 83 81 79 76 73 72 70 67 62 58 53 50 45 39 33 25 18 11 6 5 7 11 17 22 27 31 34 38 45 52 55
Wind_Direction_850mb
87 73 89 357 326 167 122 66 69 68 88 63 63 51 79 50 32 90 124 236 124 180 185 168 159 159 159 158 152 150 138 129 130 119 110 88 49 45 51 41 36 32 35 37 39 44 48 57 59
61 81 21 287 246 138 88 141 88 70 79 95 103 126 84 67 81 96 93 43 127 169 180 171 159 164 161 163 160 153 145 141 136 135 129 104 63 26 38 28 27 26 31 38 43 45 52 61 73
65 55 299 273 303 31 108 84 103 101 91 74 122 52 48 8 45 75 106 80 134 159 180 174 171 167 170 163 165 163 151 149 148 143 126 93 25 32 25 17 20 17 28 34 34 35 44 59 84
27 291 262 267 91 24 93 75 81 120 109 44 57 90 82 35 73 84 109 101 144 147 178 184 196 179 182 168 172 174 166 167 165 157 125 56 26 23 14 19 18 20 38 42 37 39 41 44 60
356 288 289 278 71 89 62 73 31 103 95 117 314 86 87 68 88 80 83 109 133 151 184 194 209 184 189 187 184 187 193 197 187 175 155 48 35 25 18 16 15 16 25 25 32 43 50 61 67
295 274 288 224 126 100 93 97 161 109 106 118 111 95 89 138 115 112 101 121 125 157 171 201 189 186 193 191 192 198 201 204 203 204 215 218 15 18 19 19 19 22 23 22 26 35 47 61 76
310 337 306 339 114 126 124 150 221 146 148 56 2 93 139 124 113 103 115 130 152 171 169 171 199 204 206 207 208 208 212 222 224 233 244 267 313 346 357 12 11 16 19 20 24 29 34 43 56
335 276 308 252 149 176 110 168 69 16 65 108 52 40 138 167 111 126 140 166 166 166 182 179 190 197 198 222 228 224 215 221 224 231 237 251 264 326 330 16 7 9 13 20 23 25 26 31 41
357 302 253 149 294 109 133 161 163 162 126 114 69 119 147 170 121 148 175 204 200 194 213 213 204 206 199 196 213 227 234 235 232 232 237 251 222 269 343 355 345 12 15 8 11 15 18 13 8
316 339 350 7 33 45 144 291 151 187 152 126 110 57 324 247 173 174 166 192 215 220 218 220 220 214 201 195 195 212 231 238 242 237 243 237 217 217 225 10 21 13 10 6 355 0 9 5 355
137 262 23 76 44 353 136 234 142 254 247 83 149 187 293 230 183 185 198 217 228 226 230 227 224 223 217 204 196 189 222 226 223 230 220 200 206 225 190 315 12 348 349 359 359 357 10 16 11
293 192 319 76 168 175 193 287 209 239 138 180 190 204 215 182 177 191 208 226 229 231 239 240 234 228 225 216 201 198 198 206 204 201 193 210 219 212 206 267 265 294 315 327 351 344 347 358 8
231 239 189 221 194 212 278 256 250 175 221 217 218 202 194 188 166 191 194 221 231 238 246 248 243 234 224 212 203 204 211 213 205 207 200 193 186 194 214 257 285 289 293 325 333 329 330 340 349
12 336 275 213 209 219 223 249 219 200 213 216 210 205 202 206 203 220 234 244 247 252 254 252 245 237 222 207 200 201 209 222 219 219 211 211 231 248 266 287 286 297 247 291 294 293 310 329 338
306 296 260 232 214 219 198 270 225 205 203 193 192 206 208 217 220 237 256 266 278 277 272 262 247 237 217 200 199 199 201 202 205 214 222 236 245 253 262 263 265 253 268 273 263 274 319 322 319
245 221 280 352 176 152 159 257 193 173 182 197 203 202 220 239 238 252 261 266 270 270 270 267 245 215 198 182 194 197 198 198 193 202 194 216 224 225 244 234 239 236 228 155 245 318 311 306 315
207 263 227 190 174 137 190 273 136 171 191 205 198 207 217 228 246 247 252 263 264 261 255 222 187 166 169 186 193 192 192 185 182 186 181 197 176 197 205 172 159 138 146 118 315 312 315 329 347
215 215 259 248 196 183 195 257 178 194 202 212 206 207 213 212 222 248 251 235 228 216 178 157 153 161 170 179 184 167 171 173 176 170 154 168 149 146 134 135 133 125 309 320 330 359 31 19 24
277 292 281 274 89 169 232 248 222 194 207 213 212 205 209 208 228 235 228 203 184 177 168 155 159 160 159 162 153 162 158 150 161 151 152 153 149 152 160 146 119 92 80 71 61 45 32 27 27
235 259 258 279 134 163 267 265 267 181 207 207 208 203 202 198 222 210 201 183 175 176 168 164 160 157 154 157 168 172 163 154 150 146 145 141 136 129 126 109 101 88 75 68 51 36 26 18 15
247 233 247 243 193 209 280 266 247 244 202 203 211 209 202 203 208 198 191 178 178 176 170 166 166 163 162 165 166 161 156 150 151 142 135 121 115 108 100 92 84 74 60 48 38 30 21 22 14
243 221 240 258 286 252 153 282 247 269 196 194 196 199 195 190 198 200 183 178 182 177 173 170 168 165 165 159 159 165 167 155 142 134 126 121 114 107 97 84 71 54 44 33 28 25 20 12 12
215 59 132 190 249 304 256 282 227 230 215 216 193 195 194 190 192 192 184 183 183 182 177 175 173 171 171 177 182 174 157 147 140 135 132 125 116 102 88 74 58 44 34 31 24 19 17 13 10
123 88 69 54 169 253 204 212 257 224 226 197 189 191 190 187 187 186 186 184 183 185 186 186 186 183 181 174 165 161 157 151 146 140 135 123 116 106 90 63 36 26 19 14 14 12 10 10 8
158 136 204 251 206 248 125 214 244 316 168 189 181 181 186 185 182 183 186 182 181 183 183 182 180 174 169 166 161 159 157 153 151 144 138 131 117 96 69 43 24 12 9 6 5 2 1 358 355
189 179 172 227 211 253 2 239 243 317 100 138 172 172 179 178 182 190 185 181 179 178 177 177 176 173 169 168 164 163 163 161 157 153 148 142 132 106 54 26 16 9 1 359 353 353 350 348 346
191 220 210 73 36 344 222 266 273 144 134 123 152 167 173 178 185 191 184 184 182 180 179 179 178 177 174 174 173 170 169 167 166 162 158 150 124 76 37 12 359 350 345 342 339 338 339 340 338
177 159 176 142 216 229 257 237 232 219 201 184 174 177 177 180 188 193 188 187 185 184 182 181 182 182 181 180 178 176 174 174 173 170 160 141 112 52 5 349 334 327 328 330 336 337 338 338 336
166 210 211 171 198 199 282 255 222 200 188 188 187 182 181 184 190 194 192 192 190 188 187 186 187 189 187 185 183 183 183 182 178 173 164 154 147 7 316 319 330 333 335 335 337 337 337 336 334
211 191 202 167 217 231 193 254 338 141 178 176 184 184 185 187 191 196 196 196 196 194 192 192 193 194 193 191 189 190 191 187 184 180 177 176 205 263 313 333 339 335 333 330 333 335 335 334 333